CW6531 Weather Reports


time (UTC)temp
F
wind
direction
speed
knots
gust
knots
rain 1hr
in
rain 24hr
in
rain mn
in
humidity
%
barometer
mb
20260906215103 91 107 0.0 6.1 0.00 0.00 0.00 31 1015.5
20260906214103 90 100 2.6 5.2 0.00 0.00 0.00 31 1015.6
20260906213102 89 75 0.0 4.3 0.00 0.00 0.00 32 1016.0
20260906212103 89 123 0.9 6.1 0.00 0.00 0.00 32 1016.0
20260906211102 90 109 2.6 4.3 0.00 0.00 0.00 30 1016.2
20260906204126 93 84 2.6 7.0 0.00 0.00 0.00 31 1016.4
20260906203105 93 18 0.0 3.5 0.00 0.00 0.00 31 1016.6
20260906202126 93 159 3.5 5.2 0.00 0.00 0.00 30 1016.8
20260906201105 92 4 0.9 4.3 0.00 0.00 0.00 28 1016.7
20260906200105 91 100 0.9 7.0 0.00 0.00 0.00 28 1016.7
20260906195105 90 81 1.7 7.8 0.00 0.00 0.00 30 1016.9
20260906194105 91 61 3.5 6.1 0.00 0.00 0.00 32 1016.9
20260906193105 91 341 2.6 5.2 0.00 0.00 0.00 30 1017.0
20260906192126 90 67 2.6 5.2 0.00 0.00 0.00 33 1017.2
20260906191104 90 63 1.7 4.3 0.00 0.00 0.00 35 1017.2
20260906190105 89 14 0.9 5.2 0.00 0.00 0.00 38 1017.5
20260906185105 88 104 1.7 6.1 0.00 0.00 0.00 38 1017.7
20260906184105 87 123 2.6 7.8 0.00 0.00 0.00 41 1017.9
20260906183104 87 40 1.7 4.3 0.00 0.00 0.00 40 1017.9
20260906182105 87 333 0.9 1.7 0.00 0.00 0.00 42 1018.2
20260906181106 85 220 0.0 5.2 0.00 0.00 0.00 44 1018.3
20260906180105 84 134 1.7 3.5 0.00 0.00 0.00 47 1018.7
20260906175104 83 81 0.9 5.2 0.00 0.00 0.00 49 1018.9
20260906174105 82 176 1.7 4.3 0.00 0.00 0.00 50 1019.0
20260906173105 81 290 1.7 4.3 0.00 0.00 0.00 50 1018.9
20260906172104 80 321 2.6 5.2 0.00 0.00 0.00 50 1019.2
20260906171105 80 276 0.9 4.3 0.00 0.00 0.00 51 1019.4
20260906170106 79 109 0.9 4.3 0.00 0.00 0.00 52 1019.6
20260906165105 79 257 1.7 4.3 0.00 0.00 0.00 52 1019.7
20260906164125 78 233 0.9 4.3 0.00 0.00 0.00 55 1019.7
20260906163105 77 109 2.6 5.2 0.00 0.00 0.00 56 1019.6
20260906162126 76 49 0.9 7.0 0.00 0.00 0.00 59 1019.6
20260906161105 75 3 1.7 4.3 0.00 0.00 0.00 60 1019.5
20260906160105 74 27 0.9 4.3 0.00 0.00 0.00 61 1019.6
20260906155105 73 357 1.7 4.3 0.00 0.00 0.00 64 1019.7
20260906154126 72 8 0.9 5.2 0.00 0.00 0.00 65 1019.7
20260906153104 72 351 1.7 5.2 0.00 0.00 0.00 67 1019.8
20260906152105 70 355 0.9 4.3 0.00 0.00 0.00 68 1019.8
20260906151105 70 358 1.7 3.5 0.00 0.00 0.00 70 1019.8
20260906150104 70 352 0.9 4.3 0.00 0.00 0.00 70 1020.0
20260906145126 69 23 0.9 4.3 0.00 0.00 0.00 71 1019.9
20260906144105 68 37 0.9 2.6 0.00 0.00 0.00 74 1019.9
20260906143104 67 14 0.0 1.7 0.00 0.00 0.00 77 1019.8
20260906142104 65 7 0.0 1.7 0.00 0.00 0.00 79 1019.9
20260906141104 65 341 1.7 5.2 0.00 0.00 0.00 79 1020.0
20260906140105 64 331 3.5 5.2 0.00 0.00 0.00 80 1019.8
20260906135104 63 343 1.7 4.3 0.00 0.00 0.00 81 1019.8
20260906134104 62 345 0.0 1.7 0.00 0.00 0.00 82 1019.8
20260906133104 62 343 0.9 3.5 0.00 0.00 0.00 82 1019.7
20260906132125 61 283 0.9 1.7 0.00 0.00 0.00 82 1019.8
20260906131147 61 287 0.0 1.7 0.00 0.00 0.00 81 1019.7
20260906130126 61 341 1.7 3.5 0.00 0.00 0.00 81 1019.5
20260906125104 61 331 0.0 1.7 0.00 0.00 0.00 81 1019.5
20260906124104 61 345 0.0 0.9 0.00 0.00 0.00 79 1019.5
20260906123125 61 344 0.0 3.5 0.00 0.00 0.00 79 1019.4
20260906122104 61 326 0.0 0.0 0.00 0.00 0.00 79 1019.3
20260906121104 61 326 0.0 0.0 0.00 0.00 0.00 78 1019.3
20260906120104 61 326 0.0 0.0 0.00 0.00 0.00 79 1019.3
20260906113104 62 338 0.0 0.9 0.00 0.00 0.00 78 1019.4
20260906112104 62 330 0.0 3.5 0.00 0.00 0.00 78 1019.2
20260906111104 62 294 0.9 1.7 0.00 0.00 0.00 78 1019.2
20260906110125 62 333 0.0 1.7 0.00 0.00 0.00 78 1019.1
20260906105105 63 329 0.0 0.9 0.00 0.00 0.00 78 1019.2
20260906104104 63 330 0.0 0.9 0.00 0.00 0.00 78 1019.1
20260906103104 63 19 0.0 0.0 0.00 0.00 0.00 76 1019.0
20260906102105 64 19 0.0 0.9 0.00 0.00 0.00 76 1019.1
20260906101105 64 19 0.0 0.9 0.00 0.00 0.00 76 1019.1
20260906100125 65 19 0.0 0.9 0.00 0.00 0.00 75 1019.2
20260906095104 65 19 0.0 0.0 0.00 0.00 0.00 73 1019.2
20260906094105 65 19 0.0 0.0 0.00 0.00 0.00 73 1019.0
20260906093104 65 19 0.0 0.9 0.00 0.00 0.00 72 1019.0
20260906092104 65 19 0.0 0.0 0.00 0.00 0.00 70 1018.9
20260906091104 66 19 0.0 1.7 0.00 0.00 0.00 69 1018.7
20260906090103 66 19 0.9 1.7 0.00 0.00 0.00 68 1018.4
20260906085104 66 19 0.0 0.9 0.00 0.00 0.00 68 1018.3
20260906084104 67 18 0.9 1.7 0.00 0.00 0.00 68 1018.3
20260906083146 67 18 0.0 1.7 0.00 0.00 0.00 67 1018.4
20260906082104 67 18 0.9 1.7 0.00 0.00 0.00 67 1018.5
20260906081104 67 9 0.0 1.7 0.00 0.00 0.00 65 1018.7
20260906080124 67 14 0.9 2.6 0.00 0.00 0.00 65 1018.6
20260906075104 67 21 0.9 5.2 0.00 0.00 0.00 64 1018.5
20260906074103 68 339 2.6 5.2 0.00 0.00 0.00 61 1018.7
20260906073104 68 326 1.7 4.3 0.00 0.00 0.00 57 1018.6
20260906072104 68 343 0.9 4.3 0.00 0.00 0.00 54 1018.4
20260906071104 69 336 1.7 5.2 0.00 0.00 0.00 51 1018.4
20260906070104 69 334 3.5 5.2 0.00 0.00 0.00 49 1018.5
20260906065104 69 341 1.7 5.2 0.00 0.00 0.00 48 1018.6
20260906064103 69 328 2.6 5.2 0.00 0.00 0.00 49 1018.5
20260906063104 69 348 0.9 3.5 0.00 0.00 0.00 52 1018.4
20260906062103 69 309 1.7 4.3 0.00 0.00 0.00 52 1018.4
20260906061104 69 170 0.9 1.7 0.00 0.00 0.00 50 1018.5
20260906060103 70 170 0.0 0.9 0.00 0.00 0.00 48 1018.6
20260906055104 70 155 0.0 0.9 0.00 0.00 0.00 50 1018.6
20260906054103 70 160 0.0 1.7 0.00 0.00 0.00 47 1018.7
20260906053104 70 231 0.0 1.7 0.00 0.00 0.00 48 1018.6
20260906052103 70 231 0.9 2.6 0.00 0.00 0.00 47 1018.6
20260906051104 71 287 0.0 3.5 0.00 0.00 0.00 45 1018.5
20260906050104 71 232 0.9 3.5 0.00 0.00 0.00 47 1018.6
20260906045124 71 289 0.9 3.5 0.00 0.00 0.00 45 1018.2
20260906044125 72 344 1.7 1.7 0.00 0.00 0.00 42 1017.9
20260906043103 72 344 0.9 1.7 0.00 0.00 0.00 44 1017.8
20260906042104 73 78 0.0 0.9 0.00 0.00 0.00 42 1017.8
20260906041103 73 85 0.0 1.7 0.00 0.00 0.00 42 1017.7
20260906040104 73 83 0.9 4.3 0.00 0.00 0.00 42 1017.6
20260906035103 74 56 0.9 1.7 0.00 0.00 0.00 40 1017.8
20260906034103 74 7 0.9 1.7 0.00 0.00 0.00 39 1017.5
20260906033104 75 344 0.9 4.3 0.00 0.00 0.00 38 1017.4
20260906032125 76 359 0.9 4.3 0.00 0.00 0.00 37 1017.5
20260906031103 76 17 0.9 3.5 0.00 0.00 0.00 35 1017.3
20260906030104 77 354 0.9 3.5 0.00 0.00 0.00 34 1017.0
20260906025103 77 20 0.9 1.7 0.00 0.00 0.00 33 1017.1
20260906024103 78 344 0.0 1.7 0.00 0.00 0.00 32 1017.0
20260906023103 78 11 0.9 5.2 0.00 0.00 0.00 31 1017.0
20260906022103 79 332 2.6 6.1 0.00 0.00 0.00 31 1016.8
20260906021104 80 7 0.9 5.2 0.00 0.00 0.00 31 1016.9
20260906015103 81 333 4.3 7.0 0.00 0.00 0.00 29 1016.5
20260906014103 82 335 3.5 6.1 0.00 0.00 0.00 28 1016.5
20260906013104 83 315 3.5 7.8 0.00 0.00 0.00 26 1016.3
20260906012103 84 322 4.3 10.4 0.00 0.00 0.00 25 1016.3
20260906011103 85 301 6.1 11.3 0.00 0.00 0.00 25 1016.2
20260906010124 86 329 4.3 9.6 0.00 0.00 0.00 23 1016.2
20260906005104 87 298 5.2 13.0 0.00 0.00 0.00 22 1016.2
20260906004103 88 315 4.3 10.4 0.00 0.00 0.00 21 1016.3
20260906003102 89 298 2.6 5.2 0.00 0.00 0.00 20 1016.3
20260906002103 90 311 2.6 4.3 0.00 0.00 0.00 19 1016.0
20260906001146 91 285 2.6 4.3 0.00 0.00 0.00 18 1016.0
20260905235103 95 309 0.9 1.7 0.00 0.00 0.00 16 1016.0
20260905234103 97 329 0.0 1.7 0.00 0.00 0.00 18 1015.8
20260905233103 98 4 0.0 3.5 0.00 0.00 0.00 14 1015.9
20260905232103 99 0 0.9 5.2 0.00 0.00 0.00 14 1015.9
20260905231124 99 5 1.7 6.1 0.00 0.00 0.00 14 1015.8
20260905230103 100 13 0.9 3.5 0.00 0.00 0.00 14 1015.8
20260905225103 100 332 1.7 4.3 0.00 0.00 0.00 13 1015.7
20260905224102 100 23 0.9 3.5 0.00 0.00 0.00 14 1015.7
20260905223103 100 315 0.9 5.2 0.00 0.00 0.00 14 1015.7
20260905222103 100 19 0.9 3.5 0.00 0.00 0.00 14 1015.8
20260905221103 99 112 1.7 5.2 0.00 0.00 0.00 13 1015.8
20260905220123 100 67 0.9 3.5 0.00 0.00 0.00 15 1016.0